Location: Mahannah Oil Field
(37.4664°N, 96.6003°W)
Time: 03:01:09
(UTC+00:00)

Tiros 1 despin weight - Pass Details

Date: 27 January 2021
Orbit: 593 x 642 km, 48.2° (Epoch: 02 March)

Event Time Altitude Azimuth Distance (km) Brightness Sun altitude
Rises 23:55:57 0° 305° (NW) 2,866 ? -3.0°
Reaches altitude 10° 23:58:33 10° 318° (NW) 1,952 ? -3.4°
Maximum altitude 00:02:23 27° 16° (NNE) 1,160 ? -4.2°
Drops below altitude 10° 00:06:10 10° 75° (ENE) 1,929 ? -4.9°
Enters shadow 00:07:16 - 82° (E) 2,298 ? -5.1°
Sets 00:08:44 0° 88° (E) 2,825 - -5.3°
